Wind_Speed
22 21 22 22 22 21 19 19 18 17 17 17 17 15 12 11 12 11 9 16 17 15 15 14 13 13 13 12 13 12 12 12 11 11 10 10 10 9 8 8 7 8 9 9 10 11 11 12 13 13 14 14 14 14 13 14 14 12 11 9 8 10 12 11 11 16 20 22 22 23 24 27 30 28 27 30 31 31 35 38 36 36 36 35 36
23 22 23 23 23 21 19 19 18 18 19 19 18 14 11 12 12 10 12 18 17 16 16 15 14 14 13 13 13 12 12 11 11 10 9 9 9 9 9 8 7 8 9 9 10 10 11 12 13 13 14 13 13 13 12 13 12 10 10 9 9 11 12 12 12 15 20 23 24 23 23 26 28 27 27 29 30 31 34 36 34 32 33 34 35
24 24 24 24 23 21 19 18 19 20 21 20 17 12 12 13 11 10 16 20 18 18 17 15 15 14 14 13 12 12 11 10 11 10 9 9 8 9 9 8 8 8 9 9 9 10 11 12 12 13 13 13 13 12 12 13 11 11 12 10 11 14 15 15 14 15 19 23 25 23 23 24 26 26 26 27 29 31 33 34 33 32 33 36 36
25 26 25 24 23 20 19 20 22 23 22 19 16 12 13 13 10 11 19 20 18 19 17 16 16 15 15 14 12 11 11 10 10 10 10 9 8 8 8 8 8 9 8 8 9 9 10 11 12 12 12 12 12 11 11 13 12 12 12 11 12 15 18 18 17 17 19 22 25 24 23 23 24 26 26 27 29 31 31 32 34 34 35 35 34
25 26 25 23 24 21 20 23 24 23 21 18 15 13 14 13 10 14 21 20 18 19 18 18 17 16 15 14 12 11 11 10 10 9 9 9 9 9 9 9 9 8 8 8 9 9 10 10 11 11 11 11 11 10 11 12 13 13 13 13 14 17 19 19 19 19 19 21 24 24 23 22 24 25 25 28 32 33 30 30 34 36 36 34 33
24 27 27 26 25 23 22 23 23 22 20 18 15 15 16 12 11 17 21 20 19 19 18 18 18 16 15 14 13 12 11 10 10 9 9 9 9 9 9 10 9 8 8 8 8 9 9 9 10 10 10 10 11 10 11 12 13 13 14 15 16 18 19 19 20 21 20 20 22 23 23 23 23 24 25 29 32 33 34 35 36 36 34 35 35
25 28 30 28 26 24 24 24 24 22 20 18 16 17 17 13 13 19 22 21 20 19 18 18 18 17 16 15 14 13 12 11 11 10 9 9 10 9 10 10 9 8 8 7 7 7 8 8 9 9 9 10 10 10 11 12 13 13 14 16 17 19 20 20 21 22 21 20 21 22 23 23 23 24 27 29 28 30 34 39 42 40 35 34 36
26 28 28 27 25 24 25 25 23 21 19 18 18 19 18 14 16 21 22 20 19 18 18 18 18 17 17 16 15 14 12 12 11 11 10 10 10 10 9 9 8 7 7 6 6 6 6 6 7 7 8 9 9 10 11 12 13 12 14 16 18 19 20 21 22 23 22 22 21 21 23 24 23 25 28 29 30 31 34 37 41 42 38 35 36
27 28 27 26 26 26 26 24 22 20 19 20 20 20 19 16 18 22 21 19 19 17 17 18 17 18 18 17 16 15 14 13 12 12 12 11 10 10 9 8 7 6 6 5 5 5 4 4 5 5 7 9 9 9 10 12 13 13 14 17 18 19 21 22 23 23 24 23 21 22 23 24 25 27 29 29 31 35 37 37 38 41 39 36 35
27 28 28 29 28 26 23 21 21 21 22 22 21 21 19 17 19 23 21 19 18 18 18 17 17 17 17 17 17 15 15 14 14 13 13 13 11 10 9 8 7 6 4 3 3 3 2 2 4 5 7 8 9 9 11 12 13 14 15 16 18 19 21 22 23 24 24 24 22 23 23 24 27 28 28 29 32 35 38 39 39 40 38 37 38
27 28 29 29 26 23 22 22 22 22 23 23 22 21 19 18 22 24 21 19 19 19 19 18 17 17 17 17 17 16 15 15 13 13 14 14 13 11 9 8 7 6 5 3 2 1 1 1 3 5 7 8 8 9 11 12 12 13 14 15 17 19 21 22 23 24 25 25 25 24 23 25 29 29 27 30 34 35 36 38 38 38 38 40 42
28 29 29 27 24 24 23 23 23 24 24 25 23 20 19 21 24 24 21 20 19 19 19 18 17 17 17 17 17 16 16 15 14 13 13 13 13 12 9 8 7 6 5 4 3 3 2 1 2 4 6 6 7 9 11 12 12 12 13 14 17 18 19 21 23 25 26 27 27 26 24 27 30 30 30 33 35 35 36 37 35 35 36 39 41
31 31 29 27 26 25 23 23 24 24 25 24 22 19 20 23 24 23 22 21 21 20 19 19 19 18 18 18 17 17 16 15 14 14 13 12 12 12 9 9 8 7 7 6 6 6 4 1 1 4 5 6 7 8 9 11 12 13 14 16 17 18 18 20 23 24 26 26 26 26 27 28 30 30 31 33 35 36 37 38 35 34 35 37 39
34 31 30 29 27 24 22 24 24 24 24 23 21 21 22 22 22 22 22 22 22 20 19 19 19 19 19 19 18 18 17 15 14 13 13 12 11 11 10 10 10 10 8 7 7 6 4 3 1 1 4 5 6 7 9 10 11 13 14 15 16 17 18 20 22 23 24 25 25 26 27 27 28 29 29 31 35 36 38 39 37 35 36 36 38
35 32 31 30 28 25 23 25 25 24 24 23 22 22 22 23 24 24 23 21 20 19 19 20 20 20 20 20 19 19 17 15 14 13 12 12 11 12 11 11 11 10 8 7 6 5 4 3 2 1 3 4 6 7 8 9 10 11 13 14 14 16 18 20 21 21 22 24 24 24 25 25 26 27 28 31 35 37 37 36 34 34 34 35 36
35 33 32 32 30 28 27 26 26 26 25 24 24 24 24 25 25 23 22 20 19 20 21 21 20 21 21 21 20 18 16 15 14 13 13 13 13 12 12 10 9 8 7 6 6 5 4 3 2 1 2 4 5 7 8 9 10 11 12 13 14 15 17 19 20 20 21 22 23 22 22 23 24 27 30 33 36 39 37 33 32 32 33 34 35
36 35 34 34 32 31 30 28 27 26 26 25 25 25 24 24 23 22 21 21 21 22 22 21 21 21 21 21 20 18 17 16 15 14 14 14 13 12 11 9 8 8 7 6 6 5 4 3 2 1 2 3 5 7 8 9 10 11 13 14 14 15 16 18 19 19 20 21 21 21 22 24 26 29 32 34 35 37 35 33 33 33 33 35 36
37 36 35 34 33 31 29 28 26 25 25 25 25 25 25 23 21 21 22 22 22 23 22 21 22 22 21 21 20 18 17 16 15 15 14 13 13 11 9 9 9 9 7 7 6 5 4 4 3 1 1 3 5 7 9 10 11 12 13 14 15 16 18 19 19 19 20 21 22 23 25 27 29 30 31 31 32 33 31 31 32 32 31 34 36
35 34 33 33 32 29 27 27 27 25 25 25 24 26 24 21 20 22 23 22 22 23 23 22 22 22 22 21 20 19 18 16 15 14 13 13 13 12 10 10 11 9 8 7 7 5 4 4 3 1 1 3 5 7 9 10 11 12 13 15 16 17 19 20 21 22 23 24 25 26 26 27 28 27 27 28 30 31 30 30 30 30 30 32 35
31 29 30 32 33 30 27 27 27 25 24 23 23 25 22 20 23 24 22 22 22 23 23 22 22 22 22 21 20 19 18 16 15 14 14 13 13 13 12 12 11 10 9 8 6 5 4 3 2 2 1 3 5 7 8 10 11 12 14 15 16 18 19 20 21 22 25 25 25 24 22 23 24 24 25 27 29 30 32 32 30 29 29 30 32
30 29 30 31 31 30 28 27 25 24 23 22 24 25 22 21 24 24 21 22 24 23 22 22 22 22 22 21 21 20 18 16 15 14 14 14 13 13 14 13 12 11 10 8 7 5 3 3 5 5 2 3 5 6 8 9 11 13 14 14 16 18 19 20 22 23 23 22 21 21 20 21 22 23 25 27 29 31 34 34 32 29 29 29 31
31 31 30 28 29 30 29 26 24 24 24 23 25 25 22 21 23 23 21 22 23 23 23 22 22 23 22 22 21 19 17 16 15 14 14 14 14 15 15 15 14 12 11 9 8 7 6 7 7 6 3 3 4 5 7 9 11 12 14 15 16 17 18 20 22 21 20 20 20 21 21 21 22 24 26 29 31 33 33 33 33 31 29 28 29
29 29 28 27 29 29 28 26 25 25 25 25 25 24 22 23 24 22 21 22 23 23 23 22 23 23 23 22 20 18 17 16 15 14 14 14 14 15 14 14 14 13 11 9 8 8 8 8 8 6 3 3 3 4 6 8 10 13 14 15 15 16 18 20 19 19 19 19 20 21 21 22 23 25 28 31 33 32 32 33 34 32 30 30 29
28 28 27 26 27 27 27 26 25 25 24 25 25 24 23 24 25 23 21 23 24 24 23 23 23 24 22 21 20 18 16 16 15 14 14 13 14 14 13 13 13 13 12 10 9 9 8 8 7 5 4 3 3 4 5 8 10 12 13 13 14 16 17 17 16 18 18 18 20 21 22 23 23 25 30 33 32 29 30 33 34 32 31 32 31
29 28 27 25 24 24 26 26 25 24 25 25 25 25 25 26 26 24 23 24 26 25 25 24 24 24 23 22 20 18 17 17 16 15 14 14 14 14 14 14 13 12 11 11 10 9 7 6 6 4 4 4 4 4 5 8 10 12 12 12 14 14 13 14 16 17 17 19 21 22 22 23 24 26 30 32 29 28 30 33 33 31 31 33 33
28 27 27 25 23 24 25 26 26 26 25 25 25 26 26 27 28 27 26 26 27 26 26 26 25 24 23 21 20 19 19 18 17 16 15 14 14 14 14 13 12 11 10 9 8 7 6 5 5 4 4 4 4 4 5 8 11 12 13 13 12 10 10 13 16 16 16 19 21 22 23 24 25 26 28 28 28 29 31 32 31 31 31 33 34
27 27 26 24 25 26 26 27 28 27 27 27 27 27 28 29 30 30 28 28 28 27 27 27 26 24 23 20 19 21 21 19 18 17 15 15 15 14 13 13 11 10 9 8 7 6 6 6 5 5 4 4 5 7 8 9 10 10 10 9 8 8 10 15 16 15 16 19 20 21 23 24 25 27 27 27 28 30 31 31 30 30 31 32 33
26 26 25 24 25 27 27 28 29 29 28 29 29 30 31 32 32 31 29 30 29 28 27 27 27 25 23 20 19 21 21 19 18 18 16 15 15 14 13 12 11 10 9 8 7 7 7 6 6 5 5 5 6 7 7 7 7 7 7 6 7 8 11 14 14 13 15 19 20 21 24 25 25 26 27 29 30 30 30 30 30 29 30 31 32
26 26 26 25 26 27 28 29 30 30 30 30 31 31 32 33 32 30 29 29 29 28 28 28 28 26 23 20 20 21 20 18 19 18 16 15 14 13 13 12 11 10 9 8 8 8 7 7 7 7 7 7 6 6 5 5 6 6 6 7 7 8 9 11 11 12 16 20 20 21 24 25 25 26 28 32 34 31 29 30 30 28 29 30 31
26 27 26 26 27 28 29 30 31 30 30 30 31 31 31 30 29 28 28 28 28 27 27 27 27 26 23 20 20 21 20 18 18 16 15 15 14 13 12 12 11 11 9 8 8 8 8 9 9 8 8 8 7 7 6 6 7 7 7 7 7 8 9 10 10 13 18 20 20 22 25 25 25 26 30 35 36 32 30 30 29 28 29 30 31
28 27 27 26 27 28 30 30 30 30 29 30 31 31 30 29 29 28 28 27 26 25 24 24 25 26 24 21 21 23 22 19 17 16 15 15 14 13 12 12 11 11 10 9 9 9 8 9 9 9 8 8 8 8 7 7 7 7 8 8 8 8 9 9 11 14 16 17 20 24 25 25 26 28 31 35 35 32 31 31 29 28 29 30 30
27 26 26 26 26 29 31 31 31 30 30 30 30 30 31 31 32 31 30 28 26 24 23 22 23 24 23 23 24 24 22 19 18 17 17 15 13 12 12 12 12 11 11 10 10 10 9 9 10 9 9 9 9 8 8 8 8 8 8 8 9 9 9 9 12 14 14 16 20 22 23 24 27 29 31 33 32 30 31 31 29 29 30 31 32
24 25 25 26 27 29 31 31 31 31 31 31 31 32 32 32 32 33 33 31 27 25 23 23 22 22 23 25 26 24 22 20 19 18 16 14 13 12 12 12 12 12 12 12 11 10 10 10 10 9 9 9 8 8 9 8 8 9 9 9 9 9 9 10 12 13 14 16 18 19 21 24 26 26 28 30 28 28 30 31 30 30 32 33 33
20 21 23 25 27 29 31 31 31 30 30 30 31 32 32 32 31 32 34 32 30 28 27 25 25 24 24 26 27 26 24 23 21 19 16 15 14 13 12 12 13 13 13 13 13 12 11 11 11 10 9 9 9 9 9 9 9 9 9 9 9 9 10 11 12 12 14 16 16 17 20 23 24 24 26 27 26 26 27 30 32 33 33 35 34
19 19 21 24 26 28 30 30 30 30 31 31 31 32 33 33 32 33 34 33 32 31 30 29 28 28 27 28 29 29 26 24 22 20 18 17 16 15 14 13 14 14 14 14 13 13 12 11 11 10 9 9 9 9 10 10 9 9 10 9 9 10 10 11 11 12 14 16 16 18 20 22 22 24 26 26 26 25 24 28 32 34 35 36 34
19 20 21 24 26 28 29 30 30 31 31 31 31 31 32 33 33 33 33 32 31 31 30 30 30 29 28 29 30 29 27 25 23 20 18 18 18 17 15 14 14 14 14 14 14 14 13 13 12 11 11 10 10 10 10 10 10 10 10 10 10 10 10 11 12 13 15 16 17 19 21 22 22 24 25 26 26 25 24 27 31 33 35 36 33
20 21 22 23 25 27 29 28 28 28 28 28 29 30 31 32 32 32 31 30 30 30 29 29 30 30 30 30 30 29 27 25 23 21 20 20 20 19 16 15 14 14 14 14 14 14 14 13 13 12 12 11 11 11 11 11 11 11 11 11 11 11 11 11 12 13 15 16 18 19 20 20 20 20 21 23 25 25 25 28 30 31 33 33 32
20 20 21 22 23 25 26 26 26 25 26 27 28 29 30 31 31 30 29 28 29 29 27 26 28 31 32 31 30 30 28 26 25 24 24 24 23 20 18 16 16 16 15 15 14 14 14 14 13 13 12 12 12 12 12 12 12 11 11 11 11 12 12 13 13 14 15 15 16 16 16 17 17 17 18 21 23 23 25 28 30 30 31 30 30
21 20 20 21 22 23 24 25 25 25 26 26 27 28 30 30 30 30 28 27 28 29 26 23 26 30 31 30 31 31 29 27 27 26 25 24 22 20 18 18 18 18 17 15 14 14 14 14 13 13 13 13 12 12 12 12 12 11 11 11 12 12 13 13 13 13 14 14 14 15 16 16 17 17 19 20 20 21 24 28 29 28 28 28 30
21 21 21 22 22 23 23 24 25 25 26 26 27 29 31 30 29 27 25 23 25 27 26 24 25 27 28 29 31 31 28 27 27 25 24 23 22 20 20 20 19 19 18 16 16 15 14 14 14 13 13 13 13 13 12 12 12 12 12 12 13 13 13 14 14 14 14 14 15 16 16 18 18 18 18 19 19 21 24 25 25 26 27 27 29
22 22 22 22 22 23 23 23 25 26 26 26 27 28 29 29 27 25 23 22 23 25 25 25 26 26 27 29 30 28 26 25 24 22 22 22 21 21 22 21 20 19 18 17 16 15 15 15 14 13 13 13 13 13 13 12 12 12 12 12 13 14 14 14 14 14 15 16 17 17 17 18 19 19 18 18 20 23 24 23 23 25 26 27 27
23 22 22 23 23 23 23 24 25 25 26 25 26 26 27 27 26 25 25 24 24 23 23 25 27 29 30 30 28 27 25 23 21 20 18 19 20 20 20 20 19 19 18 17 16 15 15 15 14 14 14 14 14 13 13 12 12 12 12 13 14 14 15 15 15 16 16 17 17 17 17 18 19 20 20 20 21 23 24 24 25 25 25 25 26
21 20 21 22 22 23 23 24 24 25 25 24 25 26 26 25 25 25 25 24 23 23 23 24 28 31 31 30 28 27 26 23 21 20 19 18 18 19 18 18 18 18 18 17 17 16 16 16 15 15 14 14 14 13 13 13 13 14 14 14 15 16 17 17 17 17 17 16 16 17 18 19 19 20 21 21 22 22 23 24 25 25 23 23 24
17 17 19 21 22 22 23 23 23 23 23 23 23 24 24 24 25 25 25 24 24 24 23 23 25 28 30 30 29 29 27 25 24 24 22 20 18 18 18 18 17 17 18 18 18 17 17 17 16 16 16 15 14 15 15 15 16 16 17 18 18 18 19 19 19 18 17 17 17 19 20 20 21 21 22 21 22 23 23 24 25 25 24 23 23
16 17 19 21 22 22 22 22 22 22 22 21 21 22 22 23 23 23 24 24 24 23 22 21 22 25 28 30 30 29 27 26 25 25 23 21 20 19 19 18 17 17 18 18 17 17 17 18 18 18 18 17 17 18 18 18 18 18 19 19 20 19 20 20 20 19 18 19 20 21 22 22 22 22 22 21 21 22 23 23 24 24 24 24 24
17 18 19 20 21 22 22 23 23 23 22 22 21 22 22 23 22 22 23 24 23 22 22 22 23 26 28 29 29 29 27 26 24 24 22 21 20 20 19 19 18 18 18 17 17 17 18 19 19 19 19 18 19 20 20 20 20 19 19 19 19 19 18 18 19 19 20 20 22 23 23 23 23 23 23 22 22 22 22 22 23 23 23 24 24
16 17 17 18 20 22 23 24 24 24 23 23 22 22 21 21 20 21 23 23 22 22 22 22 23 25 25 25 27 28 28 25 23 22 21 20 20 20 20 19 19 19 18 18 18 19 20 20 20 20 20 20 20 20 20 20 20 20 19 18 18 18 18 18 19 21 22 23 24 24 24 23 24 24 23 23 23 23 23 23 23 23 24 24 25
17 17 16 17 19 21 23 24 25 25 25 24 23 21 20 19 20 21 23 23 22 22 22 22 22 22 22 22 25 27 27 24 22 21 21 20 19 20 20 19 19 19 19 20 21 22 22 22 22 21 21 21 20 20 20 20 21 21 20 19 19 20 21 22 22 23 24 25 25 24 23 23 24 24 23 23 22 23 23 23 23 23 24 25 26
17 17 16 17 19 20 22 24 24 24 24 24 22 21 20 21 21 22 23 23 23 23 22 22 22 22 22 22 25 27 26 23 21 21 21 20 20 20 19 19 20 20 20 20 21 21 21 22 22 22 22 22 21 21 21 21 22 22 22 21 22 23 23 22 22 23 24 24 23 23 23 24 24 24 23 23 23 23 24 24 24 25 25 26 26
17 16 17 18 19 19 21 22 22 23 23 24 23 23 22 22 22 22 23 24 24 23 23 23 23 23 22 22 23 24 24 23 21 21 21 21 21 21 20 19 20 20 20 19 19 19 19 20 20 21 21 22 22 22 22 22 22 22 21 22 22 23 22 22 22 23 23 23 22 22 23 24 23 23 23 24 24 25 26 26 26 27 27 26 26
16 16 17 18 18 19 20 21 22 23 25 25 25 25 24 23 22 22 23 24 25 24 24 24 24 25 24 22 22 23 24 23 22 20 20 21 21 20 20 19 20 21 21 20 20 21 20 21 21 22 22 22 22 22 22 22 22 22 21 22 23 23 23 23 23 22 22 22 22 23 23 24 24 24 24 25 26 28 28 28 28 28 27 26 26
Wind_Direction
202 196 192 195 201 202 197 194 196 199 204 209 208 211 229 250 263 267 217 179 171 168 168 166 166 165 159 153 149 144 142 138 131 128 128 130 129 126 125 121 117 110 100 95 92 90 88 83 80 78 75 72 66 62 58 52 47 40 32 25 11 1 359 351 327 326 341 347 343 341 342 345 347 345 339 336 336 334 335 337 333 328 326 323 322
200 195 193 198 201 200 196 194 196 201 205 206 205 215 238 249 257 249 196 176 173 172 173 171 168 166 160 156 154 148 144 140 134 132 134 137 137 134 130 125 120 111 102 99 95 93 91 87 84 81 76 73 69 62 58 55 46 35 30 20 7 2 356 350 337 324 333 345 346 341 339 340 342 342 337 332 332 331 331 332 328 324 323 322 320
198 196 195 198 199 197 194 195 201 206 206 203 205 221 239 241 247 224 185 177 176 175 175 172 169 167 163 161 159 153 148 144 140 138 139 142 142 138 134 131 123 114 108 105 98 93 92 89 85 82 77 72 67 58 52 52 45 32 28 17 3 4 3 358 347 331 329 340 346 341 334 336 337 336 333 331 330 328 328 328 325 323 323 322 320
196 199 200 197 197 195 197 204 208 207 202 201 210 227 232 233 235 202 182 178 177 176 174 173 172 169 166 165 163 157 153 150 147 145 145 146 145 140 137 134 128 125 123 116 105 98 95 91 87 82 78 72 64 55 48 46 43 32 23 14 3 2 6 4 353 340 333 336 342 340 333 331 332 332 333 330 328 327 327 326 324 324 324 322 320
198 202 201 197 196 195 201 210 208 202 201 206 218 227 225 227 223 193 182 178 177 178 177 174 173 171 167 167 167 163 158 155 152 151 151 150 148 145 143 139 139 140 133 120 108 101 97 96 91 82 77 72 64 55 47 43 39 30 19 14 7 4 6 4 354 348 341 334 336 336 333 330 330 332 334 331 329 329 327 325 325 325 325 323 320
202 202 199 197 197 195 202 208 202 199 206 213 217 218 219 224 213 191 183 179 179 181 180 175 171 170 168 169 172 169 164 159 157 157 158 157 154 153 150 148 149 145 130 116 106 100 98 96 90 81 74 69 61 54 47 41 36 24 14 11 8 6 6 1 356 353 345 336 334 333 332 332 331 332 333 332 331 330 329 327 327 327 326 323 322
204 203 200 197 196 197 203 205 202 205 211 211 210 212 215 219 206 191 185 181 181 182 179 173 170 170 172 174 175 175 170 165 163 164 165 164 161 159 156 154 153 146 133 124 113 101 96 91 84 77 72 67 58 50 43 38 33 21 10 8 7 8 6 1 358 355 347 340 337 334 332 333 332 331 331 333 331 330 331 329 329 329 327 324 324
201 200 201 198 197 202 205 203 206 213 213 208 208 210 212 213 201 191 185 181 181 181 178 175 172 173 176 177 178 179 176 171 170 169 169 169 166 161 159 157 154 145 134 130 119 101 90 86 82 74 69 65 56 46 40 34 30 19 7 5 7 7 6 2 0 357 351 344 339 336 334 333 333 332 332 335 334 332 332 329 327 327 326 324 325
198 199 202 202 204 206 204 204 211 216 213 210 209 208 210 210 198 189 184 183 182 181 181 180 176 177 180 180 181 183 179 177 178 173 171 171 167 163 162 160 157 147 135 130 116 101 90 79 76 72 64 57 49 41 35 29 26 18 8 5 5 6 7 5 3 359 354 347 340 337 336 334 335 335 335 336 334 331 331 330 327 325 325 324 326
196 200 202 204 205 205 205 210 215 214 213 214 210 205 207 206 195 187 184 184 184 182 183 184 182 183 184 183 185 185 183 184 184 177 172 170 168 168 169 164 161 159 153 143 119 104 102 54 47 57 57 49 39 34 32 27 22 17 10 5 4 6 7 6 4 1 356 350 343 340 337 334 334 336 335 334 332 331 332 332 329 327 327 327 327
196 201 202 204 205 207 210 215 216 215 216 214 206 203 204 201 193 188 184 184 185 183 182 185 187 188 189 188 189 188 189 189 185 180 176 171 167 169 173 172 169 170 166 157 155 137 134 350 17 39 42 36 30 29 30 28 24 19 14 8 7 8 8 5 5 3 359 355 349 343 337 333 335 337 334 333 334 334 333 332 330 329 331 331 330
198 199 201 204 207 211 214 215 214 215 215 208 200 200 202 200 195 190 187 187 187 186 186 187 190 193 193 193 191 192 195 192 184 182 179 173 169 166 172 184 179 177 178 170 187 220 230 267 7 34 28 22 25 23 21 21 21 19 15 10 10 9 6 4 4 3 1 357 352 346 340 336 337 338 337 337 338 337 335 335 332 331 330 329 327
199 197 200 204 209 214 215 215 214 215 213 206 198 199 200 199 197 194 191 191 189 190 193 192 192 197 197 195 194 196 198 193 186 185 180 176 173 165 172 192 186 182 192 187 188 200 201 221 356 19 13 15 24 22 20 20 18 16 13 10 8 3 0 2 3 2 0 357 352 348 344 340 339 341 341 343 345 342 339 337 334 330 329 327 326
198 198 201 204 209 213 214 215 215 215 212 204 198 200 199 195 195 195 193 193 191 192 195 191 192 199 199 196 197 200 198 192 189 187 179 178 176 166 176 197 193 189 195 192 191 191 179 177 194 3 4 12 18 17 20 20 17 15 12 8 2 356 355 360 0 359 359 357 352 348 346 344 341 342 344 350 353 349 343 337 332 329 327 327 326
198 199 202 204 206 209 214 217 214 212 209 202 198 199 195 191 194 195 194 196 195 192 190 190 194 199 198 198 200 201 198 192 189 186 179 178 179 173 180 197 197 192 195 193 192 187 175 173 165 55 7 11 12 11 12 10 9 10 6 1 357 353 352 353 353 355 357 357 353 348 346 345 343 344 349 355 358 355 347 337 330 326 326 328 330
199 201 204 207 207 208 214 215 211 208 205 199 197 198 193 192 196 197 195 195 192 187 188 191 195 197 198 199 201 199 197 192 188 185 182 182 183 182 187 195 196 194 196 199 197 188 183 181 157 69 8 9 8 6 3 359 2 4 359 354 351 349 348 346 345 349 351 353 352 348 346 346 345 348 356 359 360 356 349 337 331 329 330 332 334
203 207 209 210 209 210 213 213 210 208 203 197 197 197 195 197 200 198 194 191 188 187 189 193 195 196 197 198 199 198 196 193 189 187 186 185 185 188 190 193 198 202 203 203 199 193 193 194 184 162 20 5 357 360 358 355 358 360 354 350 349 348 346 341 340 343 345 346 346 344 346 348 350 355 359 359 359 356 346 335 333 335 334 335 335
208 213 215 215 214 214 214 214 214 210 202 197 198 199 199 201 202 197 192 189 188 189 191 193 194 196 197 197 198 197 196 194 191 189 189 188 188 190 190 196 207 210 206 204 200 197 204 213 212 194 28 351 350 358 356 353 358 357 350 349 351 348 342 339 340 341 342 343 344 347 351 354 357 357 353 351 354 355 346 336 335 336 335 335 335
211 216 219 220 219 217 216 217 216 210 202 200 201 201 202 204 200 193 189 190 192 192 191 192 194 195 195 196 197 197 196 194 192 191 191 191 192 190 187 200 212 208 203 203 200 198 208 219 230 240 340 341 351 356 352 353 357 352 350 352 351 345 341 341 342 343 346 349 350 350 350 350 353 351 344 343 350 355 353 345 340 337 336 336 336
213 218 218 219 220 221 221 220 218 211 205 204 203 202 204 202 194 189 189 191 193 194 194 192 194 196 194 195 196 196 195 192 192 194 195 194 197 193 190 202 210 203 197 197 194 200 209 228 264 286 319 340 349 351 350 354 353 350 354 353 346 343 342 343 345 350 352 350 345 341 337 339 343 343 342 343 345 352 360 357 345 337 336 335 335
217 220 219 219 221 224 223 219 216 210 205 205 203 201 202 201 192 188 192 194 192 193 195 193 194 196 195 195 196 196 194 192 193 199 199 198 199 195 192 197 200 197 194 185 183 197 196 210 256 275 302 336 345 349 350 352 351 352 354 350 346 346 345 347 354 356 350 341 335 333 334 336 340 343 344 345 345 352 1 360 350 341 337 335 334
221 223 224 224 225 224 220 213 209 206 204 205 203 201 201 199 192 190 196 197 192 192 194 195 196 197 196 197 198 197 196 195 197 200 201 199 197 194 193 195 193 191 187 176 177 193 194 203 235 260 285 319 336 345 347 350 350 350 352 352 351 351 351 356 359 353 342 335 334 336 336 337 340 344 346 349 352 354 356 355 353 348 339 336 335
221 222 225 227 228 225 216 209 207 206 204 204 203 202 201 197 193 193 197 197 193 192 194 196 197 199 198 198 198 198 199 199 198 199 200 197 194 194 196 197 192 188 182 175 182 197 205 214 232 250 271 298 322 333 341 348 347 347 352 355 357 0 3 3 356 345 340 340 338 337 339 340 340 342 347 353 356 353 348 350 356 352 341 338 340
216 218 221 225 226 222 214 209 209 207 205 204 202 203 202 197 193 194 197 197 195 195 194 196 200 201 200 199 198 197 199 200 199 198 198 196 193 194 195 195 195 191 182 179 190 202 213 225 236 248 262 278 297 321 338 345 345 349 354 358 4 9 8 359 349 346 346 345 342 342 342 342 340 342 349 355 354 347 344 351 355 350 344 343 343
214 215 217 219 220 217 211 208 208 206 205 204 202 202 203 199 194 195 197 197 197 197 196 198 201 202 201 200 199 197 197 200 200 198 198 196 193 193 193 192 194 192 183 182 194 205 214 226 235 249 263 275 296 322 334 336 341 350 357 5 11 10 2 354 354 357 354 350 348 347 344 343 343 344 350 354 351 344 345 351 352 347 345 346 345
213 214 214 215 214 211 207 205 206 206 204 203 204 205 205 200 197 197 198 199 199 198 197 198 200 200 200 198 197 198 199 200 201 199 197 197 195 193 193 193 193 192 188 189 195 205 215 227 238 252 266 281 309 337 339 336 345 353 358 4 8 359 351 355 0 1 356 353 352 351 349 348 347 348 350 351 349 348 350 350 349 346 346 347 347
213 212 212 212 211 207 203 202 204 204 202 201 204 207 208 204 201 200 199 200 201 199 199 199 197 195 195 193 194 200 202 201 203 203 200 201 199 195 192 194 194 193 193 195 201 213 225 235 244 257 282 310 332 348 351 348 348 348 346 347 345 338 343 355 1 359 354 353 354 354 355 354 352 352 352 350 350 354 354 351 348 347 347 348 347
213 213 211 212 211 206 201 202 204 203 202 202 205 208 208 206 206 205 203 203 202 199 199 202 199 195 192 188 192 201 203 202 205 208 205 202 200 196 195 196 197 198 198 201 211 225 237 246 256 271 291 308 317 324 331 331 325 322 322 322 326 330 338 350 357 354 351 354 356 355 356 357 356 355 354 354 357 358 356 354 352 348 348 349 349
213 214 212 212 211 206 201 203 205 204 202 203 206 209 209 207 207 207 208 208 207 203 203 205 204 199 194 191 194 199 200 202 207 210 209 204 199 197 200 200 199 203 205 209 217 229 242 253 261 265 267 272 277 282 291 301 306 312 312 311 320 327 335 345 349 346 352 358 357 354 356 358 357 356 356 0 4 2 357 356 355 350 350 352 350
211 212 211 211 209 204 201 202 205 206 204 204 207 209 210 209 209 211 212 213 213 212 212 213 209 202 197 197 201 201 199 205 213 212 208 206 203 203 206 206 207 210 212 215 223 231 240 247 251 252 254 257 262 268 278 292 301 305 303 302 310 319 326 335 338 340 350 355 352 353 357 358 356 357 359 4 7 4 358 358 357 353 353 353 351
209 209 210 210 206 203 201 201 204 206 206 206 207 207 206 207 210 214 216 217 217 218 220 220 217 210 202 199 205 208 207 209 212 207 205 208 210 209 212 214 216 219 219 221 230 237 241 245 247 250 251 254 258 263 272 285 293 298 298 297 300 308 316 325 332 337 342 345 347 353 356 354 355 359 1 4 5 2 359 0 359 355 355 355 353
212 210 209 205 201 200 201 202 203 205 205 206 207 207 206 207 209 213 217 219 220 221 222 222 222 219 212 206 208 212 211 207 204 204 206 209 209 210 215 219 221 224 225 227 232 236 241 245 248 248 248 251 257 263 270 280 287 291 293 290 292 302 310 315 324 332 334 335 342 348 348 347 352 357 0 1 1 358 359 1 359 356 357 359 358
214 213 208 201 197 200 203 203 204 206 206 206 207 208 208 208 209 212 215 217 218 219 221 221 220 219 217 214 212 212 209 203 200 202 206 207 207 210 216 220 223 226 228 231 234 232 233 240 245 246 247 253 259 264 269 276 282 287 289 287 288 298 304 309 318 325 327 329 334 337 338 343 348 352 356 358 356 354 357 359 360 360 1 2 2
211 211 206 199 197 201 203 204 206 207 208 208 209 211 211 210 209 211 213 213 213 214 215 215 214 214 214 211 208 207 205 201 199 202 207 211 216 219 222 227 231 231 230 231 233 230 230 237 243 245 247 254 259 264 270 276 279 283 284 282 285 293 301 309 317 321 323 328 329 329 336 344 346 346 350 353 352 352 355 357 1 4 4 4 3
208 206 204 202 201 202 202 204 207 209 209 210 211 213 214 213 212 214 214 212 212 213 212 210 210 209 209 206 202 202 204 203 201 204 209 216 222 224 227 234 239 238 235 232 229 225 227 236 242 245 249 255 261 265 270 275 278 280 281 280 282 290 298 307 314 318 322 326 327 330 339 346 347 347 351 352 351 350 350 354 1 5 6 7 6
204 202 205 207 206 205 204 206 209 210 211 212 214 217 217 216 214 215 216 215 214 214 213 211 209 208 207 204 201 201 204 205 205 208 213 219 224 227 231 239 245 244 240 234 226 222 226 234 241 247 251 257 262 266 271 275 278 278 277 275 277 285 294 303 310 316 322 326 328 334 342 346 346 347 349 350 350 349 349 353 359 4 6 8 6
200 200 203 206 207 207 207 209 212 213 214 216 218 219 218 216 214 215 217 217 216 216 215 214 213 210 206 202 200 201 203 205 207 211 215 219 224 227 230 238 244 242 237 232 227 226 231 237 243 249 254 258 263 266 270 274 277 276 275 273 274 279 287 294 303 313 322 329 331 334 337 338 337 336 336 339 344 348 350 354 358 2 5 6 4
199 198 200 202 204 206 209 212 215 215 215 217 219 218 216 215 214 215 215 216 216 216 213 213 215 212 205 200 200 201 202 205 209 212 216 219 222 226 229 234 237 235 231 229 228 228 234 240 245 251 256 259 263 267 270 274 275 275 274 272 271 275 283 292 302 310 317 324 327 327 327 327 326 326 329 335 340 343 347 354 359 1 1 1 0
200 198 199 200 201 204 207 211 213 213 214 216 216 215 213 212 212 213 214 215 217 216 210 209 216 214 207 203 204 202 203 208 212 213 216 220 224 229 232 235 237 233 228 226 227 231 237 242 247 253 257 260 264 268 271 273 273 272 271 270 270 275 282 290 298 304 308 314 318 320 321 324 326 329 333 336 336 336 343 354 358 357 356 356 358
200 198 197 199 203 205 207 208 209 210 211 213 214 214 213 212 211 211 210 210 215 216 210 207 213 212 208 208 208 205 205 212 215 216 220 225 228 232 233 234 234 230 225 224 229 234 239 244 249 255 258 261 265 268 270 271 271 270 270 269 270 274 279 284 291 297 301 308 315 317 319 323 326 330 332 333 333 336 344 350 352 352 353 355 356
201 198 195 197 203 206 207 206 206 208 211 212 212 212 212 210 209 208 206 206 211 215 212 211 212 211 210 211 210 206 209 217 220 220 225 230 232 234 234 231 228 224 222 226 232 237 241 246 250 255 258 262 266 268 268 269 269 268 268 269 270 274 278 282 287 291 295 303 311 315 317 320 323 325 328 331 336 340 342 344 345 347 351 353 353
203 198 193 195 200 203 205 206 206 208 211 211 211 211 212 211 210 211 212 214 217 219 218 216 215 214 214 214 211 207 211 218 220 218 222 227 231 233 230 226 222 220 222 228 234 239 243 246 250 255 259 263 265 266 265 265 265 266 269 270 271 274 277 280 285 288 292 298 305 310 314 316 317 320 323 328 335 338 338 339 342 345 347 349 350
204 198 194 196 198 201 204 205 205 207 208 208 209 211 212 212 212 214 216 218 220 221 220 217 215 215 215 214 211 210 212 215 216 216 217 221 227 230 226 221 220 222 227 232 237 240 244 247 251 255 259 261 263 264 263 263 265 267 270 271 272 274 278 281 283 285 289 293 297 303 309 311 312 315 319 322 327 330 332 334 339 341 342 344 345
206 199 196 198 200 202 203 203 203 205 206 206 207 209 209 210 213 216 217 218 219 220 220 219 216 216 215 214 211 212 214 216 218 220 222 223 227 229 227 224 224 229 235 240 243 244 245 247 251 254 257 259 261 262 264 265 267 269 271 274 275 276 278 281 284 283 284 288 292 298 304 307 308 311 314 315 319 323 327 330 334 335 336 338 340
204 199 196 197 200 202 203 202 203 204 205 204 206 209 209 210 213 216 217 218 218 219 219 218 215 214 216 216 214 214 217 219 221 223 226 228 229 230 231 230 231 236 241 245 245 243 244 248 253 256 258 260 262 265 267 268 269 270 272 276 278 278 279 282 283 282 281 284 290 296 299 302 304 306 308 308 311 316 320 323 325 327 330 333 334
208 203 199 199 200 201 202 203 204 205 204 203 205 209 210 210 211 214 217 219 219 218 218 218 218 217 217 217 216 215 217 220 224 226 227 228 231 233 236 237 239 242 244 244 243 244 248 252 256 260 261 263 265 267 268 268 270 272 274 276 278 280 280 279 279 279 280 283 288 293 296 298 300 302 304 306 308 310 313 315 316 319 323 327 330
214 210 205 203 204 205 205 205 205 205 205 205 207 210 213 212 212 214 217 217 216 216 217 219 220 218 216 215 215 216 216 219 225 228 227 229 233 237 240 242 244 245 244 244 246 251 256 258 259 261 263 265 267 267 266 266 267 270 272 273 274 275 275 274 275 278 282 285 288 291 293 296 298 299 301 303 305 308 311 313 313 315 319 323 326
215 211 205 205 209 211 211 211 209 207 208 209 209 212 215 217 219 222 220 215 214 215 217 218 218 216 212 212 215 217 218 222 226 227 227 230 235 238 241 243 244 245 247 249 251 255 257 259 260 262 263 264 265 265 265 265 267 269 272 272 270 271 274 277 279 281 283 286 289 292 294 296 298 298 298 299 300 303 306 308 309 312 314 317 320
214 210 205 207 211 213 215 217 215 212 211 211 210 211 215 218 222 224 221 217 216 217 218 218 218 215 210 211 216 219 222 226 226 225 227 232 236 239 242 245 246 248 250 252 254 256 257 258 259 260 261 262 263 263 263 265 269 272 274 273 272 274 278 280 281 282 284 286 289 292 294 297 298 297 297 297 297 299 301 302 304 307 308 310 313
214 211 208 210 213 215 218 218 214 209 209 210 209 211 214 217 221 224 222 219 219 221 221 221 220 216 212 211 215 220 224 226 226 227 230 235 238 240 242 245 248 252 254 254 256 259 259 258 259 260 260 261 261 261 263 266 270 272 274 274 275 278 280 280 280 282 284 285 288 290 293 295 296 296 297 298 299 300 301 301 302 304 305 305 307
212 210 210 213 213 214 219 219 212 206 207 208 209 212 216 219 224 228 228 225 224 225 224 225 224 219 214 213 216 221 224 226 227 230 233 235 237 240 242 244 248 253 256 256 257 258 259 260 262 263 262 261 260 260 263 267 270 270 272 274 276 278 279 280 281 281 281 283 286 288 290 291 292 294 297 299 299 299 299 300 300 301 301 300 301
Height
1518 1520 1523 1525 1528 1529 1532 1534 1536 1538 1540 1541 1542 1543 1545 1545 1545 1546 1546 1547 1548 1549 1551 1551 1553 1554 1554 1555 1556 1557 1557 1558 1558 1558 1559 1559 1560 1560 1561 1561 1562 1561 1561 1561 1560 1560 1560 1560 1560 1560 1560 1559 1559 1558 1558 1557 1557 1556 1556 1556 1555 1554 1552 1551 1550 1547 1544 1542 1540 1537 1534 1531 1528 1526 1522 1519 1515 1512 1508 1504 1500 1496 1491 1487 1483
1516 1518 1521 1524 1526 1528 1530 1532 1535 1537 1538 1540 1541 1542 1543 1543 1544 1545 1545 1546 1548 1549 1550 1551 1552 1553 1554 1555 1556 1557 1557 1557 1558 1558 1559 1559 1560 1560 1561 1561 1562 1561 1561 1561 1560 1560 1560 1560 1560 1560 1560 1559 1559 1559 1558 1557 1557 1557 1556 1555 1555 1553 1552 1550 1549 1546 1543 1540 1538 1535 1533 1530 1526 1524 1521 1517 1513 1510 1506 1502 1498 1494 1490 1486 1481
1514 1517 1519 1522 1524 1526 1529 1531 1533 1535 1536 1538 1540 1541 1541 1542 1543 1543 1544 1546 1547 1548 1549 1550 1551 1552 1553 1555 1555 1556 1557 1557 1557 1558 1558 1559 1560 1560 1560 1561 1561 1561 1561 1561 1561 1561 1560 1560 1560 1560 1560 1559 1559 1559 1558 1557 1557 1556 1555 1555 1554 1552 1551 1549 1547 1545 1542 1539 1536 1534 1531 1528 1525 1522 1520 1516 1512 1508 1504 1500 1496 1493 1489 1484 1479
1512 1515 1517 1520 1522 1524 1527 1529 1531 1533 1535 1537 1538 1539 1540 1541 1542 1542 1543 1545 1546 1547 1548 1549 1551 1552 1553 1554 1555 1556 1556 1557 1557 1558 1558 1559 1560 1560 1560 1561 1561 1562 1562 1561 1561 1561 1560 1560 1560 1560 1560 1559 1559 1559 1558 1557 1556 1556 1555 1554 1553 1551 1549 1548 1546 1544 1541 1538 1535 1533 1530 1527 1524 1521 1518 1514 1511 1507 1503 1498 1494 1490 1486 1482 1476
1511 1513 1516 1518 1520 1523 1525 1527 1530 1531 1533 1535 1536 1538 1539 1539 1540 1541 1542 1544 1545 1546 1547 1548 1550 1551 1552 1553 1554 1555 1556 1557 1557 1558 1558 1559 1559 1560 1560 1561 1561 1561 1561 1561 1561 1561 1561 1561 1560 1560 1560 1559 1559 1559 1558 1556 1555 1555 1554 1553 1552 1550 1548 1547 1545 1543 1540 1537 1534 1531 1529 1526 1523 1520 1517 1513 1508 1504 1501 1498 1493 1488 1483 1479 1474
1509 1511 1514 1516 1519 1521 1524 1526 1528 1530 1532 1533 1535 1537 1537 1538 1539 1540 1541 1543 1544 1545 1546 1547 1548 1550 1551 1552 1553 1554 1555 1556 1557 1558 1558 1559 1559 1560 1560 1561 1561 1561 1561 1561 1561 1561 1561 1561 1560 1560 1560 1559 1559 1558 1557 1556 1555 1554 1553 1552 1551 1549 1547 1546 1544 1541 1539 1537 1534 1530 1528 1525 1522 1519 1516 1512 1507 1501 1497 1493 1490 1486 1481 1475 1470
1507 1510 1512 1514 1517 1520 1522 1524 1526 1528 1530 1532 1534 1535 1536 1537 1538 1539 1540 1541 1543 1544 1545 1546 1547 1549 1550 1552 1553 1554 1554 1555 1556 1557 1558 1559 1559 1560 1560 1560 1561 1561 1561 1561 1561 1561 1561 1561 1560 1560 1559 1559 1558 1557 1556 1555 1554 1553 1552 1551 1549 1548 1546 1545 1543 1540 1538 1536 1533 1530 1527 1524 1521 1518 1515 1511 1507 1502 1497 1490 1483 1480 1478 1472 1467
1505 1508 1511 1513 1516 1518 1521 1523 1524 1526 1528 1530 1532 1533 1534 1535 1536 1537 1539 1541 1542 1544 1544 1545 1546 1548 1550 1551 1552 1553 1554 1555 1556 1557 1558 1559 1559 1559 1560 1560 1560 1561 1561 1561 1561 1561 1561 1561 1560 1560 1559 1558 1557 1556 1555 1554 1553 1552 1551 1550 1548 1547 1545 1543 1541 1539 1537 1535 1532 1530 1526 1523 1520 1517 1513 1508 1505 1501 1497 1491 1483 1476 1473 1470 1466
1504 1507 1509 1512 1515 1517 1519 1521 1523 1525 1526 1528 1529 1531 1532 1533 1534 1536 1538 1540 1542 1543 1545 1546 1546 1547 1549 1550 1551 1552 1553 1554 1555 1556 1557 1558 1559 1559 1559 1560 1560 1561 1561 1561 1561 1561 1561 1561 1560 1560 1559 1558 1557 1556 1555 1553 1552 1551 1550 1549 1547 1546 1544 1542 1540 1538 1536 1534 1531 1529 1525 1522 1519 1515 1511 1507 1504 1498 1494 1490 1484 1477 1471 1467 1464
1502 1505 1508 1510 1513 1515 1517 1519 1521 1523 1524 1525 1527 1529 1530 1531 1533 1535 1536 1538 1541 1542 1544 1546 1546 1547 1548 1549 1550 1551 1552 1553 1554 1555 1556 1557 1558 1559 1559 1560 1560 1561 1561 1561 1561 1561 1561 1561 1560 1559 1558 1557 1557 1556 1554 1553 1552 1551 1549 1548 1546 1545 1543 1541 1540 1537 1535 1533 1530 1528 1524 1521 1518 1515 1511 1507 1503 1498 1493 1487 1481 1475 1470 1464 1460
1501 1503 1506 1508 1511 1513 1515 1517 1519 1521 1522 1524 1525 1527 1529 1530 1531 1532 1535 1537 1539 1540 1542 1545 1546 1547 1547 1548 1549 1550 1551 1552 1553 1554 1554 1555 1557 1558 1559 1559 1560 1560 1561 1561 1561 1561 1561 1561 1560 1559 1558 1557 1556 1555 1554 1553 1552 1551 1549 1548 1546 1544 1542 1541 1539 1537 1534 1532 1529 1527 1524 1521 1517 1514 1511 1506 1502 1497 1492 1487 1481 1475 1469 1463 1457
1499 1501 1504 1507 1509 1511 1514 1515 1517 1519 1520 1522 1524 1526 1528 1529 1530 1531 1533 1535 1537 1539 1541 1543 1545 1546 1546 1547 1548 1549 1550 1551 1552 1553 1553 1554 1555 1556 1558 1559 1559 1560 1560 1560 1561 1561 1561 1561 1560 1559 1558 1557 1556 1555 1554 1553 1552 1551 1549 1548 1546 1544 1542 1540 1538 1535 1533 1531 1528 1526 1524 1520 1516 1513 1510 1505 1500 1496 1491 1486 1482 1476 1471 1465 1458
1497 1499 1502 1505 1507 1509 1512 1514 1515 1517 1518 1520 1523 1524 1526 1527 1528 1530 1531 1533 1535 1537 1539 1541 1543 1544 1545 1546 1547 1548 1549 1550 1551 1551 1552 1553 1554 1554 1556 1557 1558 1558 1559 1559 1560 1560 1560 1560 1559 1559 1558 1557 1556 1555 1554 1553 1552 1550 1549 1547 1546 1544 1542 1540 1537 1535 1533 1530 1528 1526 1523 1519 1516 1512 1509 1504 1499 1494 1489 1484 1480 1476 1471 1466 1460
1495 1498 1500 1503 1505 1507 1510 1511 1513 1515 1516 1518 1521 1522 1523 1525 1527 1528 1529 1531 1533 1535 1537 1539 1541 1543 1544 1545 1546 1547 1548 1549 1550 1551 1551 1552 1553 1554 1555 1556 1556 1557 1557 1557 1558 1558 1558 1559 1559 1558 1558 1557 1556 1555 1554 1553 1551 1550 1549 1548 1546 1544 1542 1540 1537 1535 1533 1530 1528 1525 1522 1519 1515 1512 1509 1505 1499 1494 1489 1482 1478 1475 1471 1467 1462
1493 1496 1498 1500 1502 1505 1507 1509 1511 1513 1515 1517 1519 1520 1522 1523 1525 1526 1527 1530 1532 1533 1536 1538 1540 1541 1543 1544 1545 1546 1547 1548 1549 1550 1551 1551 1552 1553 1554 1555 1555 1555 1555 1556 1557 1557 1557 1557 1558 1557 1557 1556 1555 1554 1553 1552 1551 1550 1549 1547 1546 1544 1541 1539 1537 1535 1533 1530 1527 1525 1522 1519 1516 1512 1508 1504 1499 1494 1489 1484 1479 1475 1471 1466 1461
1491 1494 1496 1498 1500 1502 1504 1507 1509 1511 1513 1516 1517 1519 1520 1522 1523 1525 1526 1529 1531 1532 1534 1536 1538 1540 1541 1542 1544 1545 1546 1547 1548 1549 1550 1550 1551 1552 1553 1554 1554 1554 1555 1555 1556 1556 1556 1556 1556 1556 1556 1555 1555 1554 1553 1552 1550 1549 1548 1547 1545 1543 1541 1538 1536 1534 1532 1529 1527 1524 1522 1519 1515 1511 1507 1502 1497 1493 1488 1484 1480 1475 1470 1464 1459
1488 1491 1493 1495 1497 1499 1502 1504 1506 1509 1511 1513 1515 1517 1519 1521 1522 1524 1526 1528 1529 1531 1533 1534 1536 1538 1540 1541 1542 1543 1544 1545 1546 1547 1548 1549 1550 1551 1552 1553 1554 1554 1554 1554 1555 1555 1556 1555 1555 1556 1555 1555 1554 1553 1552 1551 1550 1549 1547 1546 1544 1542 1541 1538 1536 1533 1531 1529 1526 1524 1521 1518 1514 1510 1505 1501 1497 1492 1487 1483 1479 1474 1468 1463 1457
1486 1488 1490 1493 1495 1497 1500 1503 1505 1507 1509 1512 1513 1515 1517 1519 1521 1523 1525 1526 1528 1530 1531 1533 1535 1537 1538 1540 1541 1542 1543 1544 1545 1546 1547 1549 1550 1551 1552 1553 1553 1553 1553 1554 1554 1554 1554 1555 1555 1554 1554 1554 1553 1552 1551 1550 1549 1548 1546 1545 1543 1541 1539 1537 1535 1532 1530 1528 1525 1522 1519 1515 1512 1508 1504 1501 1497 1493 1489 1484 1479 1474 1469 1463 1457
1483 1486 1489 1491 1494 1497 1499 1501 1503 1505 1507 1509 1511 1513 1515 1518 1520 1522 1523 1525 1527 1528 1530 1531 1533 1535 1536 1537 1539 1540 1541 1543 1544 1545 1546 1548 1549 1550 1551 1552 1552 1552 1553 1553 1553 1554 1554 1554 1554 1553 1553 1553 1552 1551 1550 1549 1548 1547 1545 1544 1542 1540 1538 1536 1533 1531 1528 1525 1522 1519 1517 1514 1511 1508 1504 1501 1497 1494 1490 1485 1479 1475 1470 1464 1458
1481 1484 1487 1490 1493 1495 1497 1499 1501 1504 1506 1507 1510 1512 1514 1516 1518 1520 1522 1524 1525 1527 1529 1530 1532 1534 1535 1536 1537 1538 1540 1541 1543 1544 1545 1547 1548 1549 1550 1551 1551 1552 1552 1552 1552 1553 1553 1553 1553 1552 1552 1552 1551 1550 1549 1548 1547 1546 1544 1543 1541 1539 1537 1535 1532 1529 1526 1523 1521 1519 1516 1514 1511 1508 1504 1501 1497 1494 1489 1484 1480 1476 1470 1464 1459
1479 1482 1485 1488 1491 1493 1495 1498 1500 1503 1505 1507 1509 1511 1513 1515 1517 1519 1521 1522 1524 1526 1528 1529 1530 1532 1533 1535 1536 1537 1539 1540 1541 1543 1544 1546 1547 1547 1549 1550 1550 1551 1551 1551 1552 1552 1553 1553 1553 1552 1551 1551 1550 1549 1548 1547 1546 1544 1543 1542 1541 1538 1536 1534 1531 1528 1525 1524 1521 1519 1517 1514 1511 1508 1504 1500 1497 1492 1487 1483 1479 1475 1470 1465 1459
1478 1480 1483 1486 1489 1491 1494 1497 1499 1501 1504 1506 1508 1510 1512 1514 1517 1518 1519 1521 1523 1525 1526 1528 1529 1531 1532 1534 1535 1536 1537 1539 1540 1542 1543 1544 1545 1546 1547 1548 1549 1550 1550 1551 1552 1552 1552 1553 1552 1551 1550 1550 1549 1548 1547 1546 1545 1544 1543 1541 1540 1538 1536 1533 1530 1528 1526 1524 1522 1519 1517 1514 1510 1507 1503 1500 1495 1490 1486 1482 1478 1474 1470 1466 1461
1477 1479 1481 1484 1486 1489 1492 1495 1497 1499 1502 1504 1507 1509 1510 1513 1515 1516 1518 1520 1522 1523 1525 1527 1529 1530 1531 1533 1534 1535 1536 1538 1539 1541 1542 1543 1544 1545 1546 1547 1547 1548 1549 1550 1551 1551 1551 1551 1550 1550 1549 1549 1548 1548 1547 1545 1544 1543 1542 1540 1539 1537 1534 1532 1530 1529 1527 1524 1522 1519 1516 1513 1510 1506 1503 1498 1494 1489 1485 1482 1477 1472 1468 1465 1461
1475 1477 1479 1482 1484 1487 1490 1493 1495 1497 1500 1503 1505 1507 1509 1511 1513 1515 1517 1519 1521 1522 1523 1526 1528 1530 1531 1532 1533 1534 1536 1537 1538 1540 1541 1542 1543 1544 1545 1546 1547 1547 1548 1549 1550 1550 1550 1549 1549 1549 1548 1548 1547 1547 1546 1544 1543 1542 1541 1540 1538 1536 1534 1532 1531 1529 1527 1524 1522 1519 1516 1513 1509 1506 1502 1497 1493 1489 1486 1481 1476 1472 1468 1463 1459
1472 1475 1478 1480 1482 1485 1488 1491 1494 1496 1498 1501 1503 1505 1508 1510 1511 1514 1515 1517 1519 1520 1522 1525 1527 1528 1530 1531 1532 1534 1535 1536 1538 1539 1540 1541 1542 1543 1544 1545 1545 1546 1546 1547 1547 1548 1548 1548 1548 1547 1547 1547 1546 1545 1545 1544 1542 1541 1540 1539 1537 1535 1535 1534 1532 1529 1527 1524 1522 1519 1516 1513 1509 1505 1501 1497 1493 1490 1486 1481 1476 1471 1467 1462 1458
1471 1473 1476 1478 1481 1483 1486 1489 1492 1494 1497 1500 1502 1504 1506 1508 1510 1512 1513 1515 1517 1519 1521 1523 1525 1527 1529 1530 1532 1533 1534 1536 1537 1538 1539 1539 1540 1542 1543 1543 1544 1544 1545 1545 1546 1546 1547 1547 1547 1546 1546 1545 1545 1544 1544 1543 1541 1540 1539 1538 1537 1536 1536 1534 1531 1529 1527 1525 1522 1519 1516 1512 1509 1505 1501 1497 1494 1490 1485 1480 1475 1471 1467 1462 1457
1469 1471 1474 1476 1479 1481 1484 1487 1490 1492 1495 1498 1500 1502 1505 1506 1508 1509 1511 1513 1515 1517 1519 1521 1523 1526 1528 1529 1531 1532 1533 1535 1536 1536 1537 1538 1539 1540 1541 1542 1543 1543 1544 1544 1545 1545 1546 1546 1546 1545 1545 1544 1543 1543 1542 1542 1541 1540 1539 1538 1538 1537 1535 1533 1530 1528 1527 1525 1522 1519 1516 1512 1509 1505 1501 1498 1494 1490 1485 1481 1476 1471 1467 1463 1458
1467 1470 1472 1475 1477 1480 1483 1485 1488 1490 1493 1496 1498 1500 1502 1503 1505 1507 1509 1511 1513 1515 1517 1519 1521 1524 1526 1528 1530 1531 1532 1534 1534 1535 1536 1537 1538 1539 1540 1541 1541 1542 1543 1543 1544 1544 1544 1544 1544 1544 1543 1543 1543 1542 1542 1542 1541 1540 1539 1538 1538 1536 1534 1532 1530 1529 1527 1525 1522 1519 1515 1512 1509 1505 1502 1498 1494 1490 1486 1481 1477 1473 1468 1464 1459
1466 1469 1470 1473 1475 1478 1481 1483 1486 1489 1491 1494 1496 1498 1500 1502 1504 1506 1508 1510 1512 1514 1515 1517 1520 1522 1524 1527 1528 1529 1531 1533 1533 1534 1535 1536 1538 1539 1539 1540 1540 1541 1541 1542 1542 1543 1543 1543 1544 1543 1543 1543 1543 1542 1542 1541 1540 1539 1538 1537 1537 1535 1534 1532 1531 1529 1527 1524 1521 1518 1515 1512 1509 1506 1503 1498 1494 1490 1486 1482 1478 1474 1470 1465 1461
1464 1466 1468 1470 1473 1475 1478 1481 1484 1487 1489 1492 1494 1496 1499 1501 1504 1506 1508 1509 1511 1513 1514 1516 1518 1520 1523 1526 1527 1528 1530 1531 1532 1533 1534 1535 1537 1537 1538 1539 1539 1540 1540 1541 1541 1541 1542 1542 1542 1542 1542 1542 1542 1541 1540 1539 1539 1538 1537 1536 1535 1534 1533 1531 1530 1528 1525 1522 1520 1518 1515 1512 1509 1506 1503 1498 1494 1490 1487 1483 1479 1475 1471 1467 1462
1462 1464 1466 1468 1471 1473 1476 1479 1482 1485 1487 1490 1492 1494 1497 1500 1503 1505 1506 1508 1510 1512 1514 1515 1517 1519 1522 1524 1525 1526 1528 1529 1531 1532 1533 1534 1535 1536 1537 1537 1538 1538 1539 1539 1540 1540 1540 1540 1540 1541 1541 1541 1540 1539 1539 1538 1537 1536 1535 1535 1534 1533 1531 1530 1529 1527 1524 1522 1520 1517 1514 1512 1509 1506 1503 1498 1494 1491 1488 1484 1480 1477 1473 1469 1464
1460 1462 1464 1467 1469 1472 1475 1477 1480 1483 1485 1488 1491 1493 1495 1498 1500 1502 1504 1506 1508 1510 1512 1514 1516 1517 1520 1522 1523 1524 1526 1528 1529 1530 1531 1532 1533 1534 1535 1536 1537 1537 1538 1538 1538 1538 1538 1539 1539 1539 1539 1539 1538 1537 1537 1536 1535 1535 1534 1533 1532 1531 1530 1529 1527 1525 1524 1522 1519 1516 1514 1511 1508 1505 1502 1499 1495 1492 1488 1485 1481 1478 1474 1470 1465
1458 1460 1463 1465 1467 1470 1473 1476 1478 1480 1483 1485 1488 1490 1493 1495 1497 1499 1501 1503 1506 1508 1510 1512 1513 1515 1517 1519 1521 1523 1524 1526 1527 1528 1529 1530 1531 1532 1533 1534 1535 1535 1536 1536 1536 1536 1537 1537 1538 1538 1537 1537 1536 1536 1535 1534 1534 1533 1532 1532 1531 1530 1529 1528 1526 1524 1523 1521 1519 1516 1514 1511 1508 1505 1502 1499 1496 1493 1489 1486 1483 1479 1475 1471 1466
1457 1459 1461 1464 1466 1469 1471 1474 1476 1479 1481 1484 1486 1488 1491 1493 1495 1497 1498 1500 1502 1504 1506 1508 1510 1512 1514 1516 1518 1521 1522 1524 1525 1527 1528 1529 1530 1531 1531 1532 1533 1533 1534 1534 1534 1535 1535 1536 1536 1536 1536 1535 1535 1534 1533 1532 1532 1531 1531 1530 1529 1528 1528 1526 1525 1524 1522 1520 1518 1516 1514 1511 1508 1505 1503 1500 1497 1494 1491 1487 1484 1480 1476 1472 1467
1456 1458 1460 1463 1465 1467 1470 1472 1475 1477 1480 1482 1484 1486 1489 1491 1493 1494 1495 1497 1499 1501 1503 1505 1506 1508 1510 1513 1515 1518 1520 1522 1523 1525 1526 1527 1528 1528 1529 1530 1531 1531 1532 1532 1532 1533 1533 1534 1534 1534 1534 1533 1533 1532 1531 1531 1530 1529 1529 1528 1528 1527 1526 1525 1524 1523 1521 1519 1517 1515 1513 1510 1508 1505 1503 1500 1497 1494 1491 1489 1485 1481 1478 1474 1469
1454 1457 1459 1461 1464 1466 1469 1471 1473 1475 1478 1480 1482 1485 1487 1489 1491 1492 1494 1496 1498 1499 1501 1503 1504 1506 1508 1510 1513 1515 1518 1520 1521 1523 1524 1525 1526 1526 1527 1528 1529 1529 1529 1530 1530 1531 1531 1532 1532 1532 1532 1531 1531 1530 1530 1529 1528 1527 1527 1526 1526 1525 1525 1524 1522 1521 1520 1518 1516 1514 1512 1509 1507 1505 1502 1500 1497 1495 1492 1489 1486 1483 1479 1475 1471
1453 1455 1457 1460 1463 1465 1468 1470 1472 1474 1477 1479 1481 1483 1485 1487 1489 1490 1492 1494 1495 1497 1499 1501 1502 1504 1506 1508 1510 1513 1515 1517 1519 1520 1521 1522 1523 1524 1525 1526 1526 1527 1527 1528 1528 1529 1529 1530 1530 1530 1529 1529 1529 1528 1528 1527 1526 1525 1525 1524 1524 1523 1523 1522 1520 1519 1518 1516 1514 1512 1510 1509 1507 1505 1502 1500 1497 1495 1492 1490 1486 1483 1480 1476 1474
1452 1454 1456 1459 1461 1464 1466 1468 1471 1473 1476 1477 1479 1481 1483 1485 1486 1488 1490 1492 1493 1495 1497 1499 1499 1501 1503 1505 1508 1510 1512 1514 1516 1517 1518 1519 1520 1521 1522 1523 1524 1525 1525 1526 1527 1527 1528 1528 1528 1528 1527 1527 1527 1526 1525 1525 1524 1524 1523 1522 1522 1521 1521 1519 1518 1517 1516 1515 1513 1512 1510 1509 1507 1505 1503 1500 1497 1495 1492 1490 1487 1483 1480 1477 1475
1451 1453 1455 1458 1460 1462 1465 1467 1469 1471 1473 1475 1478 1479 1481 1482 1484 1486 1488 1489 1490 1492 1495 1497 1497 1499 1501 1504 1505 1507 1509 1511 1512 1513 1515 1516 1517 1519 1520 1521 1521 1522 1522 1523 1524 1525 1525 1525 1525 1525 1525 1525 1524 1524 1523 1522 1522 1521 1521 1521 1520 1519 1519 1518 1517 1516 1515 1514 1513 1511 1510 1508 1506 1504 1502 1500 1497 1495 1493 1490 1487 1484 1481 1479 1476
1450 1452 1454 1456 1459 1461 1463 1465 1468 1470 1471 1473 1475 1477 1478 1480 1482 1484 1486 1488 1488 1490 1492 1494 1495 1498 1500 1501 1502 1505 1508 1509 1510 1512 1513 1514 1515 1516 1517 1517 1518 1519 1519 1521 1522 1522 1523 1523 1523 1523 1523 1522 1522 1521 1521 1520 1520 1519 1519 1518 1518 1517 1517 1516 1515 1514 1514 1512 1511 1510 1508 1507 1505 1503 1501 1499 1497 1495 1492 1489 1487 1485 1482 1480 1477
1448 1450 1452 1455 1457 1460 1462 1463 1465 1467 1469 1471 1473 1475 1476 1478 1480 1482 1484 1486 1486 1487 1489 1491 1493 1496 1497 1498 1500 1504 1506 1508 1509 1511 1511 1512 1512 1513 1514 1514 1515 1516 1517 1518 1519 1519 1520 1520 1520 1520 1520 1520 1519 1519 1518 1518 1518 1517 1517 1516 1516 1515 1515 1514 1513 1512 1512 1510 1509 1508 1507 1505 1504 1502 1501 1499 1497 1494 1492 1489 1488 1485 1483 1480 1477
1447 1449 1451 1453 1455 1457 1459 1461 1463 1466 1468 1469 1471 1473 1474 1476 1478 1480 1482 1483 1484 1485 1487 1489 1491 1493 1494 1496 1499 1502 1504 1506 1507 1509 1509 1510 1510 1510 1510 1511 1512 1513 1514 1515 1516 1517 1517 1517 1517 1517 1517 1517 1517 1516 1516 1515 1515 1515 1514 1514 1514 1513 1513 1512 1511 1510 1509 1508 1507 1506 1505 1504 1502 1501 1499 1498 1495 1493 1491 1489 1487 1485 1483 1480 1478
1446 1447 1450 1452 1453 1455 1458 1460 1462 1464 1465 1467 1469 1470 1472 1474 1476 1477 1479 1480 1482 1483 1485 1486 1488 1489 1491 1494 1497 1499 1501 1502 1504 1505 1507 1508 1508 1508 1508 1509 1509 1510 1512 1513 1513 1514 1514 1514 1514 1514 1514 1514 1514 1514 1513 1513 1513 1512 1512 1512 1511 1511 1510 1509 1509 1508 1507 1507 1506 1504 1503 1502 1501 1499 1498 1496 1494 1493 1491 1489 1487 1484 1482 1480 1478
1445 1447 1449 1450 1452 1454 1456 1458 1460 1461 1463 1465 1466 1468 1470 1472 1473 1475 1476 1478 1479 1481 1483 1484 1486 1487 1489 1491 1493 1495 1497 1499 1501 1502 1503 1505 1505 1506 1506 1506 1507 1508 1509 1509 1510 1511 1511 1511 1511 1511 1511 1511 1511 1511 1511 1511 1510 1510 1509 1509 1509 1508 1507 1507 1506 1506 1505 1504 1504 1502 1501 1500 1499 1498 1496 1495 1493 1491 1490 1488 1486 1483 1482 1480 1478
1444 1446 1447 1449 1450 1452 1454 1456 1457 1459 1461 1463 1465 1466 1467 1469 1471 1472 1474 1475 1476 1478 1480 1482 1483 1485 1486 1488 1490 1492 1494 1496 1498 1499 1500 1502 1502 1503 1504 1504 1505 1505 1506 1506 1507 1508 1508 1508 1508 1508 1508 1508 1508 1508 1508 1508 1507 1507 1507 1506 1506 1505 1505 1504 1504 1503 1503 1502 1501 1500 1499 1498 1497 1496 1495 1493 1492 1490 1488 1487 1485 1483 1481 1479 1477
1441 1443 1445 1447 1448 1450 1451 1453 1455 1457 1459 1461 1462 1463 1465 1467 1468 1469 1471 1472 1474 1476 1478 1479 1481 1482 1484 1486 1488 1490 1492 1494 1495 1496 1498 1499 1500 1501 1501 1502 1502 1503 1503 1504 1504 1504 1504 1504 1504 1504 1505 1505 1505 1505 1505 1504 1504 1504 1504 1503 1503 1502 1502 1502 1501 1500 1500 1499 1498 1498 1497 1496 1495 1494 1493 1491 1490 1489 1487 1486 1484 1482 1480 1478 1476
1439 1441 1443 1444 1446 1447 1449 1451 1453 1455 1456 1458 1460 1461 1463 1465 1466 1467 1468 1470 1471 1473 1475 1476 1478 1479 1481 1484 1485 1487 1489 1491 1492 1494 1495 1496 1497 1498 1498 1499 1499 1500 1500 1501 1501 1501 1501 1501 1501 1501 1502 1502 1502 1502 1502 1501 1501 1501 1501 1501 1500 1500 1499 1499 1498 1497 1497 1496 1496 1495 1494 1493 1492 1491 1490 1489 1488 1486 1485 1484 1482 1480 1479 1477 1475
1436 1438 1440 1442 1443 1445 1446 1448 1450 1451 1453 1455 1457 1459 1461 1463 1465 1466 1467 1468 1469 1471 1472 1474 1476 1477 1479 1481 1483 1485 1486 1488 1490 1491 1492 1493 1494 1495 1496 1496 1496 1497 1497 1497 1497 1497 1497 1497 1498 1498 1498 1498 1498 1498 1498 1498 1498 1498 1498 1498 1498 1497 1496 1496 1496 1495 1494 1494 1493 1492 1492 1491 1490 1489 1488 1487 1486 1484 1483 1482 1480 1479 1477 1475 1474
1434 1435 1438 1440 1441 1442 1444 1445 1447 1450 1452 1454 1456 1457 1459 1461 1462 1464 1465 1466 1467 1468 1470 1472 1473 1475 1476 1478 1480 1482 1484 1485 1487 1488 1489 1490 1491 1492 1493 1493 1493 1494 1494 1494 1494 1493 1494 1494 1494 1494 1495 1495 1495 1495 1495 1495 1495 1495 1495 1495 1494 1493 1493 1493 1493 1492 1492 1491 1490 1490 1489 1488 1487 1486 1485 1484 1483 1482 1481 1479 1478 1477 1475 1474 1472
1433 1434 1436 1437 1439 1440 1442 1443 1445 1448 1450 1452 1453 1455 1456 1458 1460 1461 1462 1464 1465 1466 1468 1469 1471 1472 1474 1476 1478 1480 1481 1483 1484 1485 1486 1487 1488 1489 1489 1490 1490 1490 1490 1490 1490 1490 1490 1490 1490 1491 1491 1491 1492 1492 1492 1492 1492 1492 1492 1491 1491 1490 1490 1490 1490 1489 1489 1488 1488 1487 1486 1485 1484 1484 1483 1482 1480 1479 1478 1477 1476 1474 1473 1472 1470
1431 1433 1434 1435 1437 1438 1440 1441 1443 1445 1446 1448 1450 1452 1453 1455 1457 1459 1460 1461 1463 1464 1465 1467 1468 1470 1472 1474 1476 1477 1478 1480 1481 1482 1483 1484 1485 1485 1486 1486 1486 1487 1487 1487 1487 1487 1487 1487 1487 1487 1487 1488 1488 1488 1489 1489 1489 1489 1489 1488 1488 1487 1487 1487 1487 1486 1486 1485 1485 1484 1483 1482 1482 1481 1480 1479 1478 1476 1475 1474 1473 1471 1470 1469 1468